Location: Eboldshausen
(51.7766°N, 10.0050°E)
Time: 17:15:54
(UTC+00:00)

SPOT 1/Viking Rocket - Pass Details

Date: 15 November 2025
Orbit: 773 x 789 km, 98.2° (Epoch: 09 December)

Event Time Altitude Azimuth Distance (km) Brightness Sun altitude
Rises 16:37:07 0° 141° (SE) 3,260 6.5 -10.4°
Reaches altitude 10° 16:39:31 10° 134° (SE) 2,338 5.7 -10.8°
Maximum altitude 16:44:20 42° 65° (ENE) 1,121 3.9 -11.5°
Drops below altitude 10° 16:49:12 10° 356° (N) 2,361 5.9 -12.2°
Sets 16:51:38 0° 350° (N) 3,296 6.7 -12.6°
